User: anonymous
Location: Salamanca
(40.9670°N, 5.6500°W)
Time: 00:25:52
(UTC+02:00)
Language:

Cosmos 1633 Rocket - Orbit

View from above orbital plane
View from above orbital plane
View from above satellite
View from above satellite

Ground track
Ground track

The orbit data is extracted from the following two-line orbital elements,

1 15593U 85020B   14213.07781491  .00000318  00000-0  35588-4 0  7179
2 15593 082.5399 165.9646 0010214 268.5308 213.5299 14.83716317588472
Epoch (UTC): 01 August 2014 01:52:03
Eccentricity: 0.0010214
inclination: 82.5399°
perigee height: 610 km
apogee height: 625 km
right ascension of ascending node: 165.9646°
argument of perigee: 268.5308°
revolutions per day: 14.83716317
mean anomaly at epoch: 213.5299°
orbit number at epoch: 58847

The dashed part of the orbit path shows where the satellite is in the earth's shadow,  

DLR